Wind_Speed
7 7 7 7 8 8 9 9 10 10 10 10 10 10 10 10 10 11 11 11 12 13 12 12 12 12 13 13 12 13 13 13 14 14 14 13 12 12 12 12 13 12 12
8 8 8 8 8 8 8 8 9 9 9 9 9 10 10 11 11 10 9 10 11 11 11 11 11 12 12 13 13 13 14 14 15 15 15 14 14 14 13 13 13 13 13
8 8 8 8 9 8 8 9 9 9 8 9 9 9 10 11 11 10 10 10 10 9 10 11 11 11 12 12 13 13 13 13 14 15 15 15 15 15 15 14 14 14 14
7 8 8 9 9 9 10 10 10 10 9 9 9 10 10 11 11 11 12 12 12 11 11 11 11 10 11 12 13 13 13 13 14 14 15 15 15 15 15 15 14 15 15
8 8 8 9 9 9 9 10 10 9 9 10 10 10 10 11 11 12 12 12 13 13 13 13 13 12 12 12 13 14 14 13 14 14 14 14 14 14 14 14 14 15 15
9 9 9 9 9 9 9 10 10 10 10 10 10 11 11 11 11 12 12 13 13 13 13 13 13 13 13 13 12 13 13 14 13 13 13 13 13 13 14 14 14 14 15
10 10 10 9 9 10 10 10 10 10 10 10 10 10 10 10 11 11 12 13 13 13 13 13 13 13 13 13 13 13 13 13 13 13 13 13 12 13 13 14 13 14 15
11 10 10 10 10 10 10 10 10 10 10 10 10 10 10 11 11 12 12 13 14 14 14 14 14 14 14 14 13 13 13 13 13 13 13 13 13 14 14 13 14 14 15
11 10 10 11 11 11 10 11 11 11 10 10 11 11 11 12 12 12 13 13 14 14 14 14 14 14 14 13 13 14 14 13 13 13 13 13 13 13 14 14 14 15 15
12 11 11 11 11 12 12 12 11 11 12 12 12 12 13 13 13 13 14 14 14 14 14 14 14 14 15 14 14 14 14 14 14 14 14 13 13 14 14 14 14 15 15
13 12 12 12 12 12 13 13 13 13 13 13 13 14 14 14 14 14 14 15 15 14 14 14 14 15 15 15 15 14 15 15 15 14 14 14 14 15 15 15 15 15 16
15 15 14 14 14 14 14 14 14 14 14 14 15 15 15 15 15 15 15 15 15 15 15 15 15 15 15 15 15 15 15 16 15 16 16 16 16 16 17 17 17 17 17
17 17 16 16 15 15 16 15 15 15 15 15 15 15 15 16 16 15 16 16 16 16 16 16 15 15 14 14 15 15 16 16 16 16 17 17 17 18 18 18 18 19 19
18 18 18 17 17 17 17 17 16 16 16 16 16 16 16 16 16 16 16 16 16 16 16 16 16 16 15 16 16 16 16 16 16 17 17 18 18 19 19 19 19 20 20
19 20 20 19 19 19 18 18 18 18 18 18 17 17 17 17 16 16 16 16 16 16 16 16 17 17 17 17 17 17 17 17 18 18 18 19 19 19 19 20 20 21 21
19 20 20 20 20 20 20 20 19 19 19 19 19 18 18 18 18 18 17 17 18 18 18 18 18 18 18 18 18 18 18 18 18 19 19 20 20 20 20 21 21 21 22
19 18 19 20 21 21 21 21 21 20 20 20 20 20 19 19 19 19 19 19 19 19 18 19 19 19 19 19 19 19 19 19 20 20 20 20 21 21 21 22 22 22 22
20 20 20 20 21 21 22 22 22 22 22 22 21 21 21 21 20 20 20 20 20 20 20 20 20 20 20 20 20 20 21 21 21 21 21 22 22 22 22 22 22 22 22
21 21 20 21 22 22 22 22 23 23 23 23 23 23 23 22 22 21 21 21 21 21 21 21 21 21 21 21 21 22 22 22 22 22 22 22 22 23 23 22 22 23 23
22 23 22 22 23 23 23 23 24 23 23 24 23 23 23 24 23 23 22 23 23 22 22 22 22 22 23 23 23 23 24 24 23 23 23 23 24 24 24 23 23 23 24
23 23 23 23 23 23 23 24 24 25 25 24 24 24 24 25 24 24 23 24 24 24 24 24 24 24 24 25 25 25 25 24 24 24 24 25 24 25 25 25 25 25 25
25 25 25 25 24 24 24 24 25 25 25 26 26 26 25 25 25 25 25 25 25 25 25 25 25 25 25 25 26 26 26 26 26 26 26 26 26 26 26 26 26 26 26
26 26 26 26 26 25 25 25 25 25 26 25 26 26 26 26 26 26 26 26 26 26 26 26 26 26 26 26 27 27 27 27 28 27 27 27 27 27 27 27 27 27 26
27 27 27 27 27 26 26 26 27 27 27 26 26 26 26 27 27 27 27 27 27 27 27 27 26 26 27 28 28 28 28 28 28 28 28 28 28 28 28 27 28 27 27
28 29 29 28 28 28 28 29 29 28 28 28 28 28 29 29 29 29 29 29 29 29 28 28 28 29 29 29 29 29 29 29 29 29 29 29 29 29 29 28 28 28 29
30 30 30 30 30 30 30 30 30 30 30 30 30 30 29 29 29 30 30 30 30 31 31 31 31 31 31 31 31 31 31 31 31 30 31 30 30 30 29 29 29 30 30
Wind_Direction
271 267 269 270 273 276 277 278 277 276 271 272 270 269 270 272 272 270 262 260 261 262 265 267 267 266 266 264 260 259 254 255 255 258 260 259 258 258 260 262 263 265 264
274 273 275 274 272 276 280 280 279 276 275 276 275 273 272 270 270 269 270 266 262 266 268 268 267 267 265 263 261 258 257 257 259 261 260 257 258 258 259 261 262 264 264
275 276 273 273 273 277 280 282 278 278 277 277 276 274 274 270 272 271 273 271 267 267 269 269 269 270 269 266 264 263 262 260 262 260 258 257 258 256 255 256 256 260 262
273 278 275 274 274 275 277 280 276 275 274 275 276 274 273 271 269 270 274 273 270 269 271 269 268 273 274 272 268 264 262 262 263 261 257 258 256 253 253 254 256 257 258
275 276 277 276 277 277 276 276 276 279 278 278 277 277 274 274 274 273 273 272 274 274 273 270 268 273 275 273 272 263 261 261 262 260 256 257 256 255 257 258 258 257 257
274 276 279 277 279 281 280 280 279 279 279 279 279 280 280 280 277 276 274 272 274 275 273 272 270 272 273 272 270 266 263 261 262 261 258 262 261 261 259 259 259 258 257
272 273 276 276 278 279 279 283 284 280 279 280 282 282 281 281 282 280 278 277 275 276 275 275 272 272 271 273 272 268 267 267 263 263 264 262 261 260 258 259 260 258 259
275 276 278 278 277 277 280 282 285 284 281 280 281 282 284 286 285 284 282 281 279 277 277 277 276 275 272 273 272 269 268 269 267 267 267 264 262 263 262 261 261 262 262
278 279 279 279 278 275 276 279 281 282 282 282 283 285 285 286 287 287 285 282 280 277 276 276 277 277 273 270 269 269 268 270 268 266 266 264 264 266 265 263 264 265 263
279 279 279 280 280 278 276 277 279 281 282 283 283 283 283 284 286 287 285 283 281 279 277 276 275 275 273 270 269 268 267 268 268 266 263 261 263 264 265 265 264 265 266
273 276 277 277 277 277 278 279 280 280 281 282 281 282 281 282 284 284 284 284 282 280 278 277 276 275 273 271 270 268 268 267 267 265 263 262 263 265 265 266 266 266 267
270 272 274 276 276 276 276 277 278 279 279 280 280 281 281 280 283 283 284 284 282 280 278 277 276 276 274 271 270 270 270 270 269 267 265 264 265 266 267 268 267 267 267
268 270 273 274 275 275 275 276 277 277 279 279 279 278 280 281 283 283 283 282 281 280 278 277 276 276 274 272 270 271 271 271 272 270 268 266 267 268 269 269 268 267 266
268 268 271 273 273 273 273 274 276 278 280 279 280 280 279 280 281 282 282 280 279 279 278 277 275 274 273 271 270 270 271 273 272 271 270 269 268 269 269 268 267 267 266
273 271 271 273 273 273 273 274 276 278 280 280 280 280 280 281 280 280 281 280 278 279 276 276 273 273 272 271 271 271 272 273 274 274 273 272 270 271 270 269 268 268 267
274 272 271 270 271 274 274 275 275 275 276 277 277 276 277 279 278 277 277 277 277 279 277 275 273 272 271 270 271 272 272 273 275 275 275 274 273 273 272 273 271 269 267
275 275 274 274 273 273 275 274 272 273 274 275 276 275 275 276 276 276 276 278 278 278 277 275 273 272 272 270 270 272 273 274 275 275 275 275 275 275 274 274 272 270 268
275 277 278 276 276 275 274 275 273 273 273 273 274 275 274 274 274 275 276 278 279 278 275 274 274 273 272 270 270 272 274 274 275 276 276 275 275 275 275 274 272 270 269
276 278 277 276 276 277 276 275 274 274 274 273 272 273 273 272 272 273 274 276 277 277 276 275 274 272 271 271 270 271 273 273 274 275 276 277 276 275 274 273 271 269 268
277 278 277 277 277 277 276 275 275 274 273 272 272 272 272 271 271 271 272 272 274 274 274 274 274 273 272 271 271 272 272 273 274 275 276 276 275 274 273 272 272 270 269
276 277 278 278 279 277 275 275 274 273 273 272 272 272 270 269 269 270 272 272 272 273 273 273 274 273 272 272 272 271 271 271 272 274 276 276 275 274 271 271 271 272 272
276 276 278 278 278 278 275 274 273 272 273 272 272 271 271 269 269 270 271 272 272 272 273 273 273 273 272 272 272 271 271 270 272 273 275 276 275 274 272 271 271 272 272
274 274 275 276 277 277 277 276 276 273 272 272 272 271 272 270 269 269 269 270 271 272 272 274 273 272 272 272 272 272 271 271 272 272 273 275 275 275 272 272 272 272 272
274 274 274 275 275 276 276 276 276 274 273 273 273 272 272 271 269 269 268 268 270 271 271 273 273 273 273 273 272 272 272 272 273 273 274 274 275 274 273 272 272 272 272
275 274 273 273 273 275 275 274 275 275 275 274 273 273 271 270 269 269 269 269 270 270 271 272 273 273 273 273 273 273 272 272 273 273 274 274 274 275 274 272 272 271 271
275 274 274 273 273 273 274 274 273 275 275 274 274 273 272 271 269 269 269 269 269 270 269 270 272 272 273 273 272 272 271 272 273 273 274 272 273 274 274 272 272 272 272
Height
5863 5863 5862 5861 5861 5861 5860 5860 5859 5859 5858 5858 5857 5857 5857 5857 5856 5856 5855 5855 5855 5855 5854 5854 5854 5854 5853 5853 5852 5852 5852 5852 5853 5853 5853 5853 5853 5853 5854 5854 5854 5854 5854
5861 5861 5860 5860 5860 5859 5858 5858 5857 5857 5856 5856 5855 5855 5855 5854 5854 5854 5853 5853 5852 5852 5852 5851 5851 5851 5850 5850 5850 5849 5850 5850 5850 5850 5850 5850 5850 5850 5851 5851 5851 5851 5852
5859 5859 5859 5858 5858 5857 5857 5856 5855 5855 5854 5854 5853 5853 5852 5852 5851 5851 5850 5850 5850 5849 5849 5849 5848 5848 5848 5847 5847 5847 5847 5847 5847 5847 5846 5847 5847 5847 5848 5848 5848 5848 5849
5857 5857 5857 5856 5856 5855 5855 5854 5853 5853 5852 5852 5851 5851 5850 5849 5849 5848 5848 5848 5847 5847 5847 5846 5846 5845 5845 5844 5844 5844 5843 5843 5843 5843 5843 5843 5843 5844 5844 5844 5845 5845 5846
5856 5855 5855 5854 5854 5853 5853 5852 5851 5851 5850 5850 5849 5848 5847 5847 5846 5846 5845 5845 5844 5844 5844 5843 5843 5842 5842 5841 5841 5840 5840 5840 5840 5840 5840 5840 5840 5840 5841 5841 5841 5842 5842
5854 5853 5853 5852 5851 5851 5850 5850 5849 5848 5848 5847 5846 5846 5845 5844 5844 5843 5842 5842 5842 5841 5840 5840 5840 5839 5839 5838 5838 5837 5837 5837 5837 5836 5836 5836 5836 5837 5837 5837 5838 5838 5839
5852 5851 5850 5850 5849 5849 5848 5847 5847 5846 5845 5845 5844 5843 5842 5842 5841 5840 5840 5839 5839 5838 5837 5837 5836 5836 5835 5835 5835 5834 5834 5833 5833 5833 5833 5833 5833 5833 5834 5834 5835 5835 5835
5849 5848 5848 5847 5847 5846 5846 5845 5844 5844 5843 5842 5842 5841 5840 5840 5838 5838 5837 5836 5835 5835 5834 5833 5833 5832 5832 5831 5831 5831 5830 5830 5830 5830 5830 5830 5830 5830 5830 5830 5831 5831 5831
5846 5846 5845 5844 5844 5843 5843 5842 5842 5841 5840 5840 5839 5839 5838 5837 5836 5835 5834 5833 5832 5832 5831 5830 5829 5829 5828 5828 5827 5827 5827 5827 5826 5826 5826 5826 5826 5826 5827 5827 5827 5827 5828
5843 5843 5842 5842 5841 5840 5840 5839 5839 5838 5838 5837 5836 5835 5834 5833 5833 5832 5831 5830 5829 5828 5827 5826 5826 5825 5824 5824 5824 5823 5823 5823 5823 5823 5823 5822 5823 5823 5823 5823 5823 5823 5824
5840 5839 5839 5838 5838 5837 5837 5836 5835 5835 5834 5833 5833 5832 5831 5830 5829 5828 5827 5826 5825 5824 5823 5823 5822 5821 5821 5820 5820 5820 5820 5819 5819 5819 5819 5819 5819 5819 5819 5819 5819 5819 5819
5836 5836 5835 5835 5834 5834 5833 5832 5832 5831 5830 5830 5829 5828 5827 5826 5825 5824 5823 5822 5821 5820 5819 5818 5818 5817 5816 5816 5816 5816 5815 5815 5815 5815 5815 5815 5815 5815 5815 5815 5815 5815 5815
5832 5832 5831 5831 5830 5829 5829 5828 5828 5827 5826 5825 5824 5823 5823 5822 5820 5819 5818 5817 5816 5816 5815 5814 5813 5813 5812 5812 5811 5811 5811 5811 5810 5810 5810 5810 5810 5810 5810 5810 5810 5810 5810
5827 5827 5826 5826 5825 5825 5824 5824 5823 5822 5821 5820 5820 5819 5818 5817 5816 5815 5814 5813 5812 5811 5811 5810 5809 5808 5808 5808 5807 5807 5807 5806 5806 5805 5805 5805 5805 5805 5805 5805 5805 5805 5805
5822 5822 5821 5821 5820 5820 5819 5819 5818 5817 5816 5816 5815 5814 5813 5812 5811 5810 5809 5808 5808 5807 5806 5805 5805 5804 5803 5803 5803 5802 5802 5802 5801 5801 5800 5800 5800 5799 5799 5799 5799 5799 5799
5816 5816 5815 5815 5815 5814 5814 5813 5812 5812 5811 5810 5809 5809 5808 5807 5806 5805 5804 5803 5802 5802 5801 5800 5800 5799 5799 5798 5798 5797 5797 5796 5796 5795 5795 5794 5794 5794 5793 5793 5793 5793 5793
5811 5810 5809 5809 5809 5808 5808 5807 5806 5806 5805 5804 5804 5803 5802 5802 5801 5800 5799 5798 5797 5796 5795 5795 5794 5794 5793 5793 5792 5792 5791 5791 5790 5790 5789 5789 5788 5788 5787 5787 5786 5786 5786
5805 5804 5804 5803 5802 5802 5801 5800 5800 5799 5799 5798 5798 5797 5796 5796 5795 5794 5793 5792 5791 5790 5790 5789 5788 5788 5788 5787 5787 5786 5786 5785 5784 5784 5783 5783 5782 5781 5781 5780 5780 5779 5779
5799 5799 5798 5797 5796 5795 5795 5794 5793 5793 5792 5791 5791 5790 5790 5789 5789 5788 5787 5786 5785 5784 5784 5783 5782 5782 5781 5781 5780 5780 5780 5779 5778 5778 5777 5776 5775 5775 5774 5773 5773 5773 5772
5793 5792 5792 5791 5790 5789 5788 5787 5786 5786 5785 5784 5784 5783 5783 5782 5782 5781 5780 5779 5779 5778 5777 5776 5776 5775 5775 5774 5774 5773 5773 5772 5772 5771 5770 5769 5769 5768 5767 5767 5766 5766 5765
5787 5786 5785 5784 5783 5782 5781 5780 5779 5779 5778 5777 5777 5776 5776 5775 5774 5774 5773 5773 5772 5771 5770 5770 5769 5768 5768 5767 5767 5766 5766 5766 5765 5764 5763 5763 5762 5761 5760 5759 5759 5758 5757
5780 5779 5778 5777 5776 5775 5774 5773 5772 5771 5771 5770 5769 5769 5768 5768 5767 5767 5766 5765 5765 5764 5763 5763 5762 5761 5760 5760 5759 5759 5758 5758 5758 5758 5756 5755 5754 5753 5752 5752 5751 5750 5749
5773 5772 5771 5770 5769 5768 5767 5765 5764 5763 5763 5762 5761 5761 5760 5760 5759 5759 5758 5758 5757 5756 5756 5755 5754 5753 5753 5752 5752 5751 5750 5750 5749 5749 5748 5747 5746 5745 5744 5744 5743 5742 5741
5765 5764 5763 5762 5761 5760 5759 5758 5757 5755 5754 5754 5753 5753 5752 5752 5751 5751 5750 5750 5749 5749 5748 5747 5746 5745 5745 5744 5744 5743 5742 5742 5741 5740 5739 5739 5738 5737 5736 5735 5735 5734 5733
5757 5756 5755 5754 5753 5752 5751 5750 5749 5747 5746 5746 5745 5744 5743 5743 5743 5742 5742 5741 5741 5740 5739 5738 5737 5737 5736 5735 5735 5734 5733 5733 5732 5731 5730 5730 5729 5728 5727 5727 5726 5725 5724
5748 5747 5746 5745 5744 5743 5742 5741 5740 5739 5738 5737 5736 5735 5734 5733 5733 5733 5732 5732 5732 5731 5730 5729 5728 5728 5727 5726 5725 5725 5724 5724 5723 5723 5722 5721 5720 5719 5719 5718 5717 5715 5715